1500084001.15,42963,17.56,73572.8,-1.25,-1.71,-1.75,0,*58
1500084002.39,42964,17.56,73568.0,-1.25,-1.83,-1.83,0,*5B
1500084003.63,42965,17.56,73568.3,-1.25,-1.83,-1.83,0,*5A
1500084004.85,42966,17.56,73572.3,-1.23,-1.75,-1.75,0,*5F
1500084006.08,42967,17.56,73574.5,-1.23,-1.75,-1.71,0,*5A
1500084007.27,42968,17.56,73572.3,-1.25,-1.75,-1.75,0,*57
1500084008.45,42969,17.56,73574.0,-1.25,-1.75,-1.75,0,*56
1500084009.73,42970,17.56,73574.5,-1.23,-1.83,-1.83,0,*58
1500084010.98,42971,17.56,73582.0,-1.23,-1.83,-1.75,0,*50
1500084012.25,42972,17.56,73580.3,-1.23,-1.83,-1.87,0,*5E
1500084013.52,42973,17.63,73582.5,-1.23,-1.83,-1.83,0,*5B
1500084014.79,42974,17.56,73582.5,-1.23,-1.83,-1.83,0,*5C
1500084016.04,42975,17.56,73582.8,-1.23,-1.83,-1.75,0,*54
1500084017.27,42976,17.56,73582.3,-1.23,-1.71,-1.75,0,*5A
1500084018.54,42977,17.56,73582.5,-1.23,-1.83,-1.87,0,*5B
1500084019.81,42978,17.56,73576.8,-1.23,-1.87,-1.87,0,*50
1500084021.08,42979,17.56,73580.3,-1.23,-1.87,-1.83,0,*55
1500084022.36,42980,17.56,73582.0,-1.23,-1.83,-1.83,0,*57
1500084023.63,42981,17.56,73580.0,-1.23,-1.87,-1.87,0,*56
1500084024.87,42982,17.56,73582.5,-1.25,-1.87,-1.95,0,*50
1500084026.14,42983,17.56,73578.0,-1.23,-1.95,-1.99,0,*58
1500084027.41,42984,17.56,73580.0,-1.23,-1.99,-1.95,0,*5F
1500084028.69,42985,17.56,73582.8,-1.23,-1.99,-1.99,0,*52
1500084029.97,42986,17.56,73582.3,-1.23,-1.99,-1.99,0,*51
1500084031.25,42987,17.56,73580.5,-1.23,-1.99,-1.99,0,*50
1500084032.5,42988,17.56,73582.3,-1.25,-1.99,-1.99,0,*59
1500084033.77,42989,17.56,73582.3,-1.23,-1.95,-1.99,0,*52
1500084035.05,42990,17.56,73584.3,-1.23,-1.99,-1.99,0,*56
1500084036.32,42991,17.56,73580.5,-1.23,-2.03,-2.11,0,*54
1500084037.6,42992,17.56,73578.5,-1.23,-2.11,-2.11,0,*54
1500084038.84,42993,17.56,73578.5,-1.25,-2.11,-2.11,0,*53
1500084040.12,42994,17.56,73578.5,-1.23,-2.11,-2.03,0,*51
1500084041.36,42995,17.56,73578.3,-1.25,-2.03,-2.03,0,*55
1500084042.61,42996,17.56,73570.3,-1.25,-1.99,-1.99,0,*56
1500084043.86,42997,17.56,73576.5,-1.25,-1.99,-1.99,0,*57
1500084045.11,42998,17.56,73578.8,-1.25,-1.95,-1.99,0,*54
1500084046.34,42999,17.56,73576.8,-1.25,-1.95,-1.95,0,*59
1500084047.59,43000,17.56,73578.8,-1.25,-1.99,-1.99,0,*51
1500084048.83,43001,17.56,73580.3,-1.25,-1.99,-1.95,0,*5C
1500084050.07,43002,17.56,73576.3,-1.25,-1.87,-1.87,0,*53
1500084051.34,43003,17.56,73576.0,-1.23,-1.83,-1.95,0,*53
1500084052.61,43004,17.56,73576.8,-1.23,-1.83,-1.87,0,*57
1500084053.88,43005,17.56,73578.3,-1.23,-1.83,-1.83,0,*52
1500084055.1,43006,17.56,73580.0,-1.25,-1.75,-1.83,0,*5E
1500084056.32,43007,17.56,73578.0,-1.23,-1.75,-1.71,0,*54
1500084057.55,43008,17.56,73578.3,-1.23,-1.75,-1.71,0,*5B
1500084058.77,43009,17.56,73576.5,-1.23,-1.75,-1.71,0,*5A
1500084059.99,43010,17.56,73580.3,-1.23,-1.71,-1.75,0,*52
1500084061.22,43011,17.56,73580.0,-1.23,-1.63,-1.71,0,*54
1500084062.49,43012,17.56,73580.3,-1.23,-1.83,-1.83,0,*54
1500084063.76,43013,17.56,73580.0,-1.23,-1.87,-1.83,0,*51
1500084065.01,43014,17.56,73586.0,-1.23,-1.75,-1.83,0,*5B
1500084066.25,43015,17.56,73586.3,-1.23,-1.83,-1.75,0,*5A
1500084067.53,43016,17.56,73580.5,-1.23,-1.83,-1.87,0,*54
1500084068.8,43017,17.56,73584.0,-1.23,-1.83,-1.83,0,*51
1500084070.02,43018,17.56,73584.5,-1.21,-1.83,-1.79,0,*59
1500084071.27,43019,17.56,73582.5,-1.21,-1.83,-1.83,0,*5D
1500084072.54,43020,17.56,73584.0,-1.23,-1.83,-1.83,0,*55
1500084073.81,43021,17.56,73586.5,-1.23,-1.87,-1.87,0,*54
1500084075.08,43022,17.56,73580.8,-1.23,-1.95,-1.87,0,*54
1500084076.35,43023,17.56,73582.0,-1.23,-1.87,-1.87,0,*56
1500084077.63,43024,17.56,73588.3,-1.23,-1.99,-1.99,0,*51
1500084078.91,43025,17.56,73586.5,-1.23,-1.99,-1.99,0,*50
1500084080.19,43026,17.56,73582.3,-1.23,-1.99,-1.99,0,*53
1500084081.46,43027,17.56,73582.5,-1.23,-1.99,-1.95,0,*5E
1500084082.73,43028,17.56,73582.5,-1.23,-1.95,-1.99,0,*51
1500084084.01,43029,17.56,73580.8,-1.23,-1.99,-1.99,0,*5C
1500084085.29,43030,17.56,73580.8,-1.23,-2.03,-1.99,0,*54
1500084086.56,43031,17.56,73582.8,-1.23,-1.99,-1.95,0,*59
1500084087.82,43032,17.56,73582.0,-1.23,-1.95,-1.95,0,*56
1500084089.09,43033,17.56,73584.8,-1.23,-1.95,-1.95,0,*57
1500084090.36,43034,17.56,73584.3,-1.23,-1.95,-1.99,0,*5C
1500084091.61,43035,17.56,73582.3,-1.25,-1.99,-1.99,0,*57
1500084092.89,43036,17.56,73582.3,-1.23,-1.99,-1.99,0,*52
1500084094.16,43037,17.56,73582.3,-1.23,-1.95,-1.99,0,*5F
1500084095.43,43038,17.56,73580.5,-1.23,-1.95,-1.99,0,*50
1500084096.68,43039,17.56,73580.0,-1.25,-1.95,-1.99,0,*57
1500084097.91,43040,17.56,73582.8,-1.25,-1.95,-1.95,0,*55
1500084099.17,43041,17.56,73582.0,-1.23,-1.95,-1.95,0,*52
1500084100.41,43042,17.56,73580.5,-1.25,-1.87,-1.87,0,*57
1500084101.68,43043,17.56,73586.5,-1.23,-1.87,-1.87,0,*50
1500084102.93,43044,17.56,73584.8,-1.25,-1.99,-1.99,0,*51
1500084104.18,43045,17.56,73578.3,-1.25,-1.99,-1.99,0,*50
1500084105.46,43046,17.56,73586.3,-1.23,-1.99,-1.95,0,*59
1500084106.7,43047,17.56,73584.5,-1.25,-1.99,-1.95,0,*5E
1500084107.96,43048,17.56,73582.8,-1.23,-1.99,-1.95,0,*57
1500084109.2,43049,17.56,73584.3,-1.25,-1.95,-1.83,0,*5B
1500084110.45,43050,17.56,73580.3,-1.25,-1.87,-1.83,0,*50
1500084111.72,43051,17.56,73582.8,-1.23,-1.95,-1.83,0,*54
1500084112.95,43052,17.56,73582.3,-1.25,-1.95,-1.87,0,*55
1500084114.2,43053,17.56,73578.8,-1.25,-1.83,-1.83,0,*57
1500084115.47,43054,17.56,73582.5,-1.23,-1.83,-1.83,0,*56
1500084116.74,43055,17.56,73580.8,-1.23,-1.83,-1.83,0,*57
1500084118.02,43056,17.56,73584.0,-1.23,-1.83,-1.83,0,*54
1500084119.26,43057,17.56,73584.5,-1.25,-1.83,-1.83,0,*53
1500084120.5,43058,17.56,73582.8,-1.23,-1.75,-1.87,0,*57
1500084121.78,43059,17.56,73582.5,-1.23,-1.83,-1.87,0,*5F
1500084123.05,43060,17.56,73578.8,-1.23,-1.83,-1.83,0,*51
1500084124.32,43061,17.56,73584.5,-1.23,-1.87,-1.83,0,*54
1500084125.57,43062,17.56,73582.8,-1.23,-1.83,-1.75,0,*5A
1500084126.79,43063,17.56,73584.5,-1.25,-1.83,-1.75,0,*5D
1500084128.04,43064,17.56,73582.5,-1.23,-1.83,-1.75,0,*5C
1500084129.31,43065,17.56,73586.3,-1.23,-1.87,-1.87,0,*54
1500084130.5,43066,17.56,73584.3,-1.21,-1.79,-1.79,0,*55
1500084131.69,43067,17.56,73584.0,-1.21,-1.79,-1.79,0,*54
1500084132.94,43068,17.56,73586.3,-1.23,-1.75,-1.83,0,*50
1500084134.13,43069,17.56,73584.0,-1.21,-1.79,-1.71,0,*52
1500084135.38,43070,17.56,73586.0,-1.21,-1.91,-1.83,0,*51
1500084136.62,43071,17.56,73582.3,-1.21,-1.83,-1.83,0,*53
1500084137.89,43072,17.56,73580.0,-1.23,-1.83,-1.87,0,*56
1500084139.13,43073,17.56,73580.0,-1.25,-1.95,-1.87,0,*56
1500084140.35,43074,17.56,73576.3,-1.21,-1.83,-1.79,0,*53
1500084141.55,43075,17.56,73578.0,-1.21,-1.79,-1.71,0,*5F
1500084142.75,43076,17.56,73582.3,-1.21,-1.79,-1.71,0,*5C
1500084143.95,43077,17.56,73580.8,-1.21,-1.71,-1.71,0,*55
1500084145.15,43078,17.56,73580.0,-1.21,-1.67,-1.71,0,*5D
1500084146.35,43079,17.56,73580.5,-1.21,-1.71,-1.67,0,*5C
1500084147.55,43080,17.56,73580.3,-1.21,-1.71,-1.71,0,*5D
1500084148.75,43081,17.56,73574.3,-1.21,-1.71,-1.67,0,*5B
1500084149.95,43082,17.56,73580.3,-1.21,-1.79,-1.67,0,*50
1500084151.15,43083,17.56,73580.5,-1.21,-1.67,-1.71,0,*59
1500084152.34,43084,17.56,73582.0,-1.21,-1.67,-1.63,0,*5D
1500084153.56,43085,17.56,73580.0,-1.19,-1.67,-1.71,0,*54
1500084154.76,43086,17.56,73586.5,-1.21,-1.71,-1.71,0,*5B
1500084155.96,43087,17.56,73580.3,-1.21,-1.71,-1.67,0,*5D
1500084157.18,43088,17.56,73582.3,-1.19,-1.67,-1.63,0,*5A
1500084158.39,43089,17.56,73582.0,-1.19,-1.67,-1.63,0,*5B
1500084159.61,43090,17.56,73580.5,-1.19,-1.63,-1.63,0,*57
1500084160.83,43091,17.56,73582.3,-1.19,-1.67,-1.63,0,*52
1500084162.04,43092,17.56,73578.0,-1.19,-1.63,-1.63,0,*55
1500084163.24,43093,17.56,73580.0,-1.21,-1.67,-1.67,0,*5F
1500084164.43,43094,17.56,73582.3,-1.21,-1.67,-1.67,0,*58
1500084165.65,43095,17.56,73580.5,-1.19,-1.67,-1.63,0,*56
1500084166.85,43096,17.56,73580.8,-1.21,-1.71,-1.71,0,*5A
1500084168.07,43097,17.56,73584.0,-1.19,-1.75,-1.75,0,*50
1500084169.28,43098,17.56,73580.3,-1.19,-1.79,-1.75,0,*53
1500084170.48,43099,17.56,73584.8,-1.21,-1.79,-1.79,0,*55
1500084171.67,43100,17.56,73584.3,-1.21,-1.67,-1.67,0,*54
1500084172.89,43101,17.56,73576.5,-1.19,-1.63,-1.63,0,*5E
1500084174.11,43102,17.56,73582.8,-1.19,-1.63,-1.67,0,*59
1500084175.33,43103,17.56,73582.0,-1.19,-1.67,-1.67,0,*5C
1500084176.54,43104,17.56,73582.5,-1.19,-1.63,-1.63,0,*5B
1500084177.76,43105,17.56,73586.0,-1.19,-1.63,-1.63,0,*5A
1500084178.97,43106,17.56,73590.5,-1.19,-1.63,-1.63,0,*59
1500084180.19,43107,17.56,73584.5,-1.19,-1.63,-1.63,0,*58
1500084181.4,43108,17.56,73584.3,-1.19,-1.67,-1.63,0,*53
1500084182.62,43109,17.56,73586.0,-1.19,-1.67,-1.67,0,*56
1500084183.84,43110,17.56,73588.0,-1.19,-1.63,-1.63,0,*5E
1500084185.06,43111,17.56,73588.5,-1.19,-1.67,-1.67,0,*5F
1500084186.25,43112,17.56,73586.8,-1.17,-1.67,-1.67,0,*52
1500084187.45,43113,17.56,73590.8,-1.15,-1.59,-1.63,0,*58
1500084188.64,43114,17.56,73588.5,-1.17,-1.67,-1.67,0,*54
1500084189.83,43115,17.56,73590.3,-1.17,-1.67,-1.75,0,*56
1500084191.05,43116,17.56,73590.3,-1.19,-1.79,-1.79,0,*58
1500084192.24,43117,17.56,73588.8,-1.17,-1.79,-1.79,0,*57
1500084193.48,43118,17.56,73590.5,-1.17,-1.87,-1.91,0,*5F
1500084194.72,43119,17.56,73588.3,-1.17,-1.87,-1.87,0,*59
1500084195.95,43120,17.56,73590.3,-1.17,-1.95,-1.95,0,*53
1500084197.21,43121,17.56,73592.0,-1.19,-1.95,-1.95,0,*5C
1500084198.46,43122,17.56,73588.5,-1.21,-2.11,-2.11,0,*54
1500084199.7,43123,17.56,73590.0,-1.19,-2.19,-2.07,0,*51
1500084200.91,43124,17.56,73588.5,-1.19,-2.27,-2.27,0,*59
1500084202.11,43125,17.56,73588.8,-1.21,-2.31,-2.23,0,*50
1500084203.31,43126,17.56,73594.0,-1.21,-2.31,-2.31,0,*50
1500084204.5,43127,17.56,73586.8,-1.21,-2.19,-2.23,0,*58
1500084205.75,43128,17.56,73584.0,-1.19,-2.07,-2.19,0,*5A
1500084207.02,43129,17.56,73586.5,-1.19,-2.11,-2.07,0,*53
1500084208.29,43130,17.56,73580.5,-1.23,-2.03,-2.11,0,*56
1500084209.57,43131,17.56,73576.0,-1.23,-2.03,-2.11,0,*57
1500084210.81,43132,17.56,73574.5,-1.25,-2.11,-2.03,0,*52
1500084212.09,43133,17.56,73574.8,-1.23,-2.11,-2.03,0,*55
1500084213.36,43134,17.56,73572.8,-1.23,-1.95,-1.99,0,*5D
1500084214.6,43135,17.56,73576.8,-1.21,-1.91,-1.91,0,*52
1500084215.85,43136,17.56,73572.8,-1.21,-1.95,-1.91,0,*55
1500084217.08,43137,17.56,73568.0,-1.21,-1.95,-1.95,0,*50
1500084218.32,43138,17.56,73566.3,-1.21,-1.91,-1.95,0,*5B
1500084219.56,43139,17.56,73568.0,-1.21,-1.99,-1.95,0,*52
1500084220.83,43140,17.56,73576.3,-1.19,-1.91,-1.91,0,*5B
1500084222.05,43141,17.56,73582.5,-1.21,-1.83,-1.79,0,*54
1500084223.26,43142,17.56,73582.3,-1.19,-1.79,-1.75,0,*55
1500084224.5,43143,17.56,73580.0,-1.21,-1.95,-1.95,0,*53
1500084225.73,43144,17.56,73584.0,-1.21,-1.95,-1.95,0,*54
1500084226.99,43145,17.56,73578.3,-1.21,-1.99,-1.99,0,*55
1500084228.24,43146,17.56,73580.5,-1.21,-1.99,-1.99,0,*56
1500084229.48,43147,17.56,73572.5,-1.23,-2.15,-2.03,0,*52
1500084230.76,43148,17.56,73572.8,-1.23,-2.03,-2.03,0,*5A
1500084232.03,43149,17.56,73578.3,-1.23,-2.03,-2.03,0,*5B
1500084233.27,43150,17.56,73578.5,-1.21,-1.91,-1.91,0,*51
1500084234.49,43151,17.56,73580.5,-1.21,-1.79,-1.83,0,*55
1500084235.71,43152,17.56,73578.8,-1.21,-1.83,-1.79,0,*56
1500084236.98,43153,17.56,73582.5,-1.23,-1.87,-1.87,0,*50
1500084238.21,43154,17.56,73580.3,-1.21,-1.83,-1.71,0,*58
1500084239.4,43155,17.56,73578.3,-1.21,-1.79,-1.67,0,*5B
1500084240.62,43156,17.56,73580.0,-1.19,-1.63,-1.63,0,*5C
1500084241.81,43157,17.56,73584.0,-1.21,-1.67,-1.79,0,*59
1500084243.06,43158,17.56,73580.5,-1.19,-1.87,-1.75,0,*5F
1500084244.27,43159,17.56,73584.0,-1.19,-1.75,-1.79,0,*5F
1500084245.49,43160,17.56,73580.5,-1.19,-1.75,-1.79,0,*55
1500084246.71,43161,17.56,73580.0,-1.21,-1.83,-1.79,0,*56
1500084247.93,43162,17.56,73578.5,-1.21,-1.83,-1.79,0,*55
1500084249.17,43163,17.56,73582.0,-1.21,-1.99,-1.95,0,*5D
1500084250.43,43164,17.56,73578.8,-1.21,-1.99,-1.99,0,*56
1500084251.67,43165,17.56,73584.0,-1.21,-1.95,-1.99,0,*5B
1500084252.91,43166,17.56,73584.8,-1.21,-1.91,-1.91,0,*54
1500084254.11,43167,17.56,73586.3,-1.21,-1.79,-1.79,0,*55
1500084255.35,43168,17.56,73586.8,-1.21,-1.91,-1.83,0,*59
1500084256.58,43169,17.56,73584.0,-1.21,-1.95,-1.95,0,*5B
1500084257.83,43170,17.56,73584.3,-1.21,-2.07,-2.07,0,*53
1500084259.08,43171,17.56,73580.0,-1.21,-2.07,-2.11,0,*55
1500084260.33,43172,17.56,73582.0,-1.21,-1.99,-1.99,0,*51
1500084261.58,43173,17.56,73582.0,-1.21,-1.99,-1.99,0,*50
1500084262.83,43174,17.56,73582.0,-1.21,-2.07,-2.07,0,*57
1500084264.08,43175,17.56,73584.0,-1.21,-2.11,-2.11,0,*56
1500084265.3,43176,17.56,73586.8,-1.21,-2.19,-2.11,0,*5D
1500084266.49,43177,17.56,73588.0,-1.21,-2.23,-2.31,0,*57
1500084267.71,43178,17.56,73588.5,-1.23,-2.35,-2.35,0,*59
1500084268.93,43179,17.56,73580.8,-1.23,-2.35,-2.27,0,*5B
1500084270.12,43180,17.56,73578.5,-1.25,-2.15,-2.15,0,*58
1500084271.34,43181,17.56,73576.8,-1.23,-2.15,-2.15,0,*5F
1500084272.61,43182,17.56,73576.5,-1.23,-2.11,-2.11,0,*5C
1500084273.83,43183,17.56,73578.5,-1.23,-2.15,-2.15,0,*5D
1500084275.08,43184,17.56,73582.3,-1.25,-2.11,-2.03,0,*5F
1500084276.36,43185,17.56,73578.8,-1.23,-1.99,-1.99,0,*5B
1500084277.61,43186,17.56,73576.5,-1.25,-1.99,-1.99,0,*5E
1500084278.88,43187,17.56,73578.0,-1.23,-2.03,-2.03,0,*59
1500084280.16,43188,17.56,73582.0,-1.23,-2.11,-2.11,0,*56
1500084281.4,43189,17.56,73576.3,-1.25,-2.11,-2.11,0,*51
1500084282.62,43190,17.56,73572.8,-1.23,-2.15,-2.15,0,*5F
1500084283.83,43191,17.56,73574.3,-1.23,-2.27,-2.27,0,*5E
1500084285.05,43192,17.56,73574.5,-1.25,-2.15,-2.11,0,*5F
1500084286.26,43193,17.56,73576.8,-1.25,-2.15,-2.11,0,*5E
1500084287.51,43194,17.56,73576.8,-1.25,-2.03,-2.03,0,*5D
1500084288.76,43195,17.56,73576.3,-1.23,-2.03,-2.23,0,*58
1500084289.97,43196,17.56,73574.5,-1.23,-2.23,-2.27,0,*5D
1500084291.16,43197,17.56,73572.3,-1.25,-2.23,-2.23,0,*5E
1500084292.41,43198,17.56,73572.0,-1.25,-2.11,-2.03,0,*52
1500084293.6,43199,17.56,73574.5,-1.25,-2.23,-2.23,0,*50
1500084294.79,43200,17.56,73574.5,-1.25,-2.15,-2.23,0,*56
1500084296.01,43201,17.56,73574.5,-1.25,-2.15,-2.11,0,*56
1500084297.25,43202,17.56,73576.8,-1.25,-2.03,-2.03,0,*51
1500084298.49,43203,17.56,73572.0,-1.25,-2.03,-2.03,0,*50
1500084299.77,43204,17.56,73572.0,-1.23,-2.03,-1.99,0,*51
1500084301.0,43205,17.56,73572.0,-1.25,-1.95,-1.95,0,*56
1500084302.24,43206,17.56,73574.5,-1.25,-1.99,-1.95,0,*59
1500084303.48,43207,17.56,73578.0,-1.25,-1.83,-1.83,0,*54
1500084304.73,43208,17.56,73578.3,-1.25,-1.83,-1.83,0,*5B
1500084305.97,43209,17.56,73576.3,-1.25,-1.87,-1.83,0,*5E
1500084307.19,43210,17.56,73578.8,-1.25,-1.83,-1.75,0,*5B
1500084308.41,43211,17.56,73578.3,-1.25,-1.83,-1.75,0,*5A
1500084309.68,43212,17.56,73578.0,-1.23,-1.87,-1.87,0,*56
1500084310.95,43213,17.56,73578.5,-1.23,-1.87,-1.87,0,*57
1500084312.22,43214,17.56,73578.3,-1.23,-1.83,-1.83,0,*50
1500084313.45,43215,17.56,73578.0,-1.23,-1.75,-1.71,0,*55
1500084314.67,43216,17.56,73576.5,-1.23,-1.75,-1.71,0,*56
1500084315.89,43217,17.56,73578.8,-1.23,-1.75,-1.71,0,*57
1500084317.12,43218,17.56,73578.0,-1.23,-1.75,-1.71,0,*58
1500084318.35,43219,17.56,73582.5,-1.23,-1.71,-1.71,0,*5D
1500084319.56,43220,17.56,73580.8,-1.23,-1.75,-1.75,0,*57
1500084320.79,43221,17.56,73578.3,-1.23,-1.75,-1.71,0,*52
1500084321.99,43222,17.56,73580.0,-1.21,-1.71,-1.71,0,*57
1500084323.19,43223,17.56,73580.3,-1.21,-1.71,-1.71,0,*56
1500084324.39,43224,17.56,73582.3,-1.21,-1.79,-1.71,0,*59
1500084325.58,43225,17.56,73580.8,-1.21,-1.79,-1.79,0,*50
1500084326.78,43226,17.56,73582.3,-1.21,-1.67,-1.71,0,*54
1500084327.98,43227,17.56,73582.0,-1.21,-1.71,-1.71,0,*52
1500084329.18,43228,17.56,73580.5,-1.21,-1.71,-1.71,0,*5D
1500084330.39,43229,17.56,73580.5,-1.21,-1.71,-1.71,0,*5C
1500084331.61,43230,17.56,73578.8,-1.19,-1.67,-1.67,0,*5F
1500084332.85,43231,17.56,73582.0,-1.21,-1.91,-1.91,0,*55
1500084334.09,43232,17.56,73580.5,-1.21,-1.95,-1.91,0,*52
1500084335.28,43233,17.56,73582.0,-1.21,-1.79,-1.79,0,*57
1500084336.5,43234,17.56,73580.0,-1.19,-1.75,-1.79,0,*57
1500084337.74,43235,17.56,73580.8,-1.21,-1.83,-1.83,0,*51
1500084338.94,43236,17.56,73582.8,-1.21,-1.79,-1.79,0,*52
1500084340.15,43237,17.56,73580.3,-1.21,-1.79,-1.83,0,*56
1500084341.4,43238,17.56,73582.3,-1.19,-1.79,-1.87,0,*56
1500084342.64,43239,17.56,73578.3,-1.21,-1.83,-1.91,0,*5E
1500084343.88,43240,17.56,73580.5,-1.21,-1.95,-1.95,0,*53
1500084345.12,43241,17.56,73582.3,-1.21,-1.91,-1.91,0,*52
1500084346.36,43242,17.56,73580.5,-1.19,-1.83,-1.79,0,*5F
1500084347.63,43243,17.56,73576.0,-1.19,-1.91,-1.87,0,*5C
1500084348.89,43244,17.56,73580.5,-1.19,-1.91,-1.95,0,*58
1500084350.13,43245,17.56,73578.3,-1.21,-1.95,-1.91,0,*52
1500084351.37,43246,17.56,73582.0,-1.21,-1.95,-1.91,0,*51
1500084352.62,43247,17.56,73580.0,-1.21,-1.95,-1.99,0,*58
1500084353.87,43248,17.56,73576.8,-1.21,-1.99,-1.99,0,*5B
1500084355.14,43249,17.56,73578.0,-1.19,-2.07,-2.03,0,*55
1500084356.39,43250,17.56,73576.8,-1.21,-2.11,-2.07,0,*55
1500084357.63,43251,17.56,73578.8,-1.21,-1.91,-1.91,0,*53
1500084358.88,43252,17.56,73576.3,-1.21,-1.95,-1.91,0,*54
1500084360.12,43253,17.56,73578.3,-1.21,-1.91,-1.83,0,*52
1500084361.33,43254,17.56,73572.8,-1.19,-1.79,-1.79,0,*5D
1500084362.53,43255,17.56,73576.8,-1.21,-1.79,-1.79,0,*57
1500084363.74,43256,17.56,73576.5,-1.19,-1.75,-1.75,0,*5F
1500084364.94,43257,17.56,73578.0,-1.21,-1.71,-1.79,0,*5D
1500084366.14,43258,17.56,73578.3,-1.21,-1.67,-1.67,0,*5A
1500084367.38,43259,17.56,73576.5,-1.21,-1.83,-1.83,0,*5B
1500084368.61,43260,17.56,73580.5,-1.21,-1.83,-1.79,0,*54
1500084369.82,43261,17.56,73574.8,-1.19,-1.67,-1.75,0,*58
1500084371.02,43262,17.56,73576.5,-1.21,-1.71,-1.71,0,*53
1500084372.24,43263,17.56,73582.0,-1.19,-1.67,-1.67,0,*59
1500084373.46,43264,17.56,73582.5,-1.19,-1.75,-1.75,0,*5E
1500084374.68,43265,17.56,73582.8,-1.21,-1.79,-1.83,0,*51
1500084375.94,43266,17.56,73584.3,-1.19,-1.87,-1.87,0,*5C
1500084377.19,43267,17.56,73580.3,-1.21,-1.95,-1.91,0,*52
1500084378.45,43268,17.56,73578.5,-1.19,-1.91,-1.91,0,*52
1500084379.69,43269,17.56,73578.5,-1.21,-1.95,-1.91,0,*5C
1500084380.96,43270,17.56,73582.8,-1.19,-1.91,-1.91,0,*5B
1500084382.22,43271,17.56,73580.0,-1.19,-2.03,-1.95,0,*56
1500084383.49,43272,17.56,73582.8,-1.19,-1.95,-2.03,0,*55
1500084384.73,43273,17.56,73586.5,-1.21,-2.07,-2.11,0,*54
1500084385.98,43274,17.56,73582.8,-1.21,-2.07,-2.11,0,*53
1500084387.23,43275,17.56,73582.5,-1.21,-2.11,-2.07,0,*52
1500084388.45,43276,17.56,73584.5,-1.19,-2.19,-2.19,0,*5D
1500084389.64,43277,17.56,73580.8,-1.21,-2.23,-2.23,0,*57
1500084390.89,43278,17.56,73580.5,-1.19,-2.07,-2.19,0,*5C
1500084392.14,43279,17.56,73572.0,-1.21,-1.99,-1.99,0,*59
1500084393.39,43280,17.56,73570.5,-1.21,-1.99,-1.91,0,*57
1500084394.62,43281,17.56,73568.8,-1.21,-1.95,-1.95,0,*5E
1500084395.86,43282,17.56,73568.0,-1.21,-1.91,-1.91,0,*5D
1500084397.11,43283,17.56,73568.3,-1.21,-1.91,-1.83,0,*5F
1500084398.35,43284,17.56,73564.5,-1.21,-1.95,-1.91,0,*5F
1500084399.58,43285,17.56,73574.0,-1.21,-1.95,-1.95,0,*5A
1500084400.83,43286,17.56,73572.5,-1.21,-2.07,-2.07,0,*59
1500084402.08,43287,17.56,73576.8,-1.21,-2.07,-2.11,0,*5F
1500084403.32,43288,17.56,73576.5,-1.21,-2.07,-2.11,0,*50
1500084404.58,43289,17.56,73578.0,-1.21,-1.99,-2.07,0,*52
1500084405.83,43290,17.56,73572.0,-1.21,-1.99,-1.99,0,*5E
1500084407.08,43291,17.56,73572.5,-1.21,-1.99,-1.99,0,*5F
1500084408.34,43292,17.56,73578.0,-1.21,-1.99,-1.99,0,*5C
1500084409.57,43293,17.56,73574.5,-1.21,-1.95,-1.95,0,*5D
1500084410.81,43294,17.56,73572.8,-1.21,-1.95,-1.95,0,*5A
1500084412.04,43295,17.5,73570.5,-1.21,-1.95,-1.95,0,*5B
1500084413.28,43296,17.56,73570.0,-1.21,-1.95,-1.95,0,*58
1500084414.52,43297,17.56,73572.8,-1.21,-1.95,-1.91,0,*5D
1500084415.8,43298,17.56,73576.5,-1.23,-1.99,-1.99,0,*54
1500084417.04,43299,17.56,73576.3,-1.21,-1.95,-1.99,0,*5B
1500084418.32,43300,17.56,73576.3,-1.23,-1.99,-1.99,0,*54
1500084419.57,43301,17.56,73574.8,-1.25,-1.99,-1.99,0,*53
1500084420.84,43302,17.56,73574.0,-1.23,-1.87,-1.95,0,*55
1500084422.12,43303,17.56,73572.8,-1.23,-1.99,-1.99,0,*57
1500084423.4,43304,17.56,73574.3,-1.23,-1.99,-1.99,0,*50
1500084424.68,43305,17.56,73574.3,-1.23,-1.99,-1.99,0,*51
1500084425.92,43306,17.56,73574.5,-1.21,-1.95,-1.91,0,*54
1500084427.16,43307,17.56,73570.3,-1.21,-1.95,-1.95,0,*51
1500084428.4,43308,17.56,73570.8,-1.21,-1.91,-1.91,0,*5E
1500084429.64,43309,17.56,73568.8,-1.21,-1.95,-1.91,0,*5B
1500084430.88,43310,17.56,73570.8,-1.21,-1.95,-1.91,0,*53
1500084432.12,43311,17.56,73570.0,-1.21,-1.95,-1.95,0,*56
1500084433.35,43312,17.56,73574.0,-1.21,-1.95,-1.95,0,*55
1500084434.59,43313,17.56,73572.5,-1.21,-1.95,-1.95,0,*54
1500084435.82,43314,17.56,73578.8,-1.21,-1.95,-1.95,0,*53
1500084437.07,43315,17.56,73576.5,-1.21,-1.95,-1.91,0,*56
1500084438.31,43316,17.56,73578.0,-1.21,-1.95,-1.91,0,*55
1500084439.54,43317,17.56,73576.0,-1.21,-1.95,-1.95,0,*50
1500084440.78,43318,17.56,73576.3,-1.21,-1.95,-1.95,0,*5F
1500084442.02,43319,17.56,73578.5,-1.21,-1.91,-1.83,0,*5D
1500084443.21,43320,17.56,73572.0,-1.21,-1.79,-1.79,0,*54
1500084444.41,43321,17.56,73574.8,-1.21,-1.79,-1.67,0,*5A
1500084445.61,43322,17.56,73574.3,-1.21,-1.67,-1.71,0,*51
1500084446.82,43323,17.56,73568.8,-1.19,-1.67,-1.63,0,*58
1500084448.02,43324,17.56,73572.8,-1.21,-1.67,-1.67,0,*50
1500084449.23,43325,17.56,73572.3,-1.19,-1.67,-1.63,0,*5E
1500084450.45,43326,17.56,73572.3,-1.19,-1.67,-1.63,0,*5D
1500084451.67,43327,17.56,73572.0,-1.19,-1.63,-1.67,0,*5C
1500084452.88,43328,17.56,73570.3,-1.19,-1.55,-1.63,0,*52
1500084454.1,43329,17.56,73568.0,-1.19,-1.63,-1.55,0,*53
1500084455.29,43330,17.56,73574.5,-1.21,-1.67,-1.67,0,*55
1500084456.51,43331,17.56,73574.8,-1.19,-1.67,-1.67,0,*5F
1500084457.73,43332,17.56,73578.0,-1.19,-1.67,-1.63,0,*58
1500084458.94,43333,17.56,73570.0,-1.19,-1.63,-1.55,0,*58
1500084460.16,43334,17.56,73572.5,-1.19,-1.55,-1.51,0,*5E
1500084461.34,43335,17.56,73578.8,-1.21,-1.59,-1.59,0,*50
1500084462.55,43336,17.56,73578.8,-1.19,-1.55,-1.55,0,*58
1500084463.74,43337,17.56,73576.5,-1.17,-1.55,-1.55,0,*57
1500084464.92,43338,17.56,73580.0,-1.17,-1.51,-1.55,0,*5C
1500084466.11,43339,17.56,73582.0,-1.17,-1.55,-1.55,0,*59
1500084467.3,43340,17.56,73576.8,-1.17,-1.55,-1.55,0,*57
1500084468.48,43341,17.56,73580.0,-1.17,-1.55,-1.55,0,*56
1500084469.67,43342,17.56,73580.8,-1.17,-1.63,-1.55,0,*50
1500084470.86,43343,17.56,73582.3,-1.17,-1.55,-1.55,0,*54
1500084472.05,43344,17.56,73586.5,-1.17,-1.55,-1.51,0,*57
1500084473.23,43345,17.56,73586.5,-1.17,-1.55,-1.55,0,*52
1500084474.43,43346,17.56,73584.3,-1.15,-1.51,-1.51,0,*53
1500084475.62,43347,17.56,73586.3,-1.17,-1.63,-1.63,0,*50
1500084476.82,43348,17.56,73584.5,-1.15,-1.63,-1.63,0,*5D
1500084478.02,43349,17.56,73584.5,-1.15,-1.71,-1.75,0,*58
1500084479.23,43350,17.56,73586.3,-1.15,-1.71,-1.71,0,*54
1500084480.43,43351,17.56,73586.0,-1.15,-1.63,-1.59,0,*5C
1500084481.62,43352,17.56,73582.0,-1.15,-1.59,-1.59,0,*56
1500084482.84,43353,17.56,73584.5,-1.15,-1.59,-1.47,0,*58
1500084484.04,43354,17.56,73584.0,-1.15,-1.51,-1.51,0,*50
1500084485.22,43355,17.56,73584.0,-1.17,-1.63,-1.55,0,*56
1500084486.42,43356,17.56,73580.8,-1.15,-1.63,-1.63,0,*52
1500084487.62,43357,17.56,73584.3,-1.15,-1.59,-1.51,0,*5B
1500084488.81,43358,17.56,73582.8,-1.15,-1.63,-1.59,0,*55
1500084490.01,43359,17.56,73584.3,-1.15,-1.59,-1.63,0,*54
1500084491.21,43360,17.56,73582.3,-1.15,-1.63,-1.59,0,*5E
1500084492.43,43361,17.56,73584.3,-1.13,-1.63,-1.63,0,*50
1500084493.62,43362,17.56,73584.0,-1.15,-1.63,-1.59,0,*5C
1500084494.82,43363,17.56,73584.0,-1.15,-1.63,-1.59,0,*5D
1500084496.07,43364,17.56,73586.8,-1.15,-1.83,-1.83,0,*53
1500084497.32,43365,17.56,73586.0,-1.15,-1.87,-1.87,0,*52
1500084498.58,43366,17.56,73586.0,-1.15,-1.99,-1.99,0,*51
1500084499.84,43367,17.56,73586.0,-1.15,-2.03,-2.03,0,*50
1500084501.09,43368,17.56,73586.3,-1.15,-2.03,-2.11,0,*5C
1500084502.34,43369,17.56,73584.8,-1.17,-2.03,-2.03,0,*5C
1500084503.59,43370,17.56,73586.5,-1.15,-1.91,-1.91,0,*56
1500084504.84,43371,17.56,73582.3,-1.15,-1.83,-1.83,0,*57
1500084506.09,43372,17.56,73582.0,-1.15,-1.87,-1.87,0,*54
1500084507.34,43373,17.56,73580.8,-1.15,-1.87,-1.87,0,*55
1500084508.58,43374,17.56,73578.3,-1.17,-2.03,-1.95,0,*5C
1500084509.84,43375,17.56,73582.0,-1.15,-1.99,-1.91,0,*5B
1500084511.09,43376,17.56,73578.0,-1.15,-1.83,-1.83,0,*50